FW2728 Weather Reports


time (UTC)temp
C
wind
direction
speed
KPH
gust
KPH
rain 1hr
cm
rain 24hr
cm
rain mn
cm
humidity
%
barometer
mb
20260506155537 13 41 3.2 9.7 0.15 0.15 0.15 90 1015.0
20260506154517 12 14 1.6 6.4 0.15 0.15 0.15 91 1014.5
20260506153517 12 43 1.6 9.7 0.15 0.15 0.15 91 1013.9
20260506152518 12 47 1.6 6.4 0.15 0.15 0.15 90 1014.3
20260506151538 12 33 1.6 4.8 0.13 0.13 0.13 88 1015.9
20260506150518 12 59 3.2 8.0 0.13 0.13 0.13 85 1015.0
20260506145516 12 309 1.6 6.4 0.00 0.00 0.00 83 1016.4
20260506144515 12 358 1.6 4.8 0.00 0.00 0.00 82 1016.1
20260506143516 12 310 1.6 6.4 0.00 0.00 0.00 81 1016.4
20260506142556 12 30 1.6 6.4 0.00 0.00 0.00 80 1014.2
20260506141516 12 18 3.2 11.3 0.00 0.00 0.00 80 1014.6
20260506140516 12 353 1.6 4.8 0.00 0.00 0.00 80 1014.8
20260506135516 12 27 1.6 4.8 0.00 0.00 0.00 79 1014.7
20260506134516 12 28 1.6 6.4 0.00 0.00 0.00 79 1014.2
20260506133516 12 23 1.6 4.8 0.00 0.00 0.00 78 1014.1
20260506132517 12 30 1.6 8.0 0.00 0.00 0.00 77 1013.9
20260506131537 13 21 1.6 6.4 0.00 0.00 0.00 77 1013.8
20260506130517 13 34 3.2 6.4 0.00 0.00 0.00 75 1013.4
20260506125558 13 23 3.2 8.0 0.00 0.00 0.00 74 1013.4
20260506124537 13 37 1.6 6.4 0.00 0.00 0.00 74 1013.4
20260506123517 13 22 1.6 4.8 0.00 0.00 0.00 74 1013.3
20260506122518 13 8 3.2 6.4 0.00 0.00 0.00 74 1013.0
20260506121538 13 25 1.6 8.0 0.00 0.00 0.00 73 1012.9
20260506120518 13 18 1.6 8.0 0.00 0.00 0.00 74 1012.9
20260506115518 13 36 1.6 6.4 0.00 0.00 0.00 74 1012.9
20260506114536 13 15 1.6 6.4 0.00 0.00 0.00 74 1012.8
20260506113518 13 14 1.6 4.8 0.00 0.00 0.00 74 1012.6
20260506112516 14 357 1.6 4.8 0.00 0.00 0.00 74 1012.3
20260506111516 14 12 1.6 4.8 0.00 0.00 0.00 74 1012.0
20260506110536 14 342 3.2 9.7 0.00 0.00 0.00 74 1012.1
20260506105517 15 353 1.6 8.0 0.00 0.00 0.00 74 1011.8
20260506104516 15 346 1.6 4.8 0.00 0.00 0.00 73 1011.8
20260506103516 15 14 1.6 4.8 0.00 0.00 0.00 74 1011.5
20260506102537 15 39 1.6 6.4 0.00 0.00 0.00 74 1011.2
20260506101517 15 42 0.0 6.4 0.00 0.00 0.00 74 1011.1
20260506100517 15 15 1.6 8.0 0.00 0.00 0.00 74 1010.9
20260506095517 15 31 1.6 3.2 0.00 0.00 0.00 74 1010.7
20260506094616 16 19 1.6 4.8 0.00 0.00 0.00 74 1010.8
20260506093516 16 45 0.0 3.2 0.00 0.00 0.00 74 1010.6
20260506092516 16 50 1.6 6.4 0.00 0.00 0.00 74 1010.5
20260506091516 16 42 1.6 6.4 0.00 0.00 0.00 74 1010.5
20260506090536 16 38 1.6 9.7 0.00 0.00 0.00 73 1010.5
20260506085516 16 39 3.2 9.7 0.00 0.00 0.00 74 1010.5
20260506084517 16 38 0.0 4.8 0.00 0.00 0.00 74 1010.3
20260506083517 16 48 1.6 8.0 0.00 0.00 0.00 74 1010.2
20260506082556 17 54 1.6 6.4 0.00 0.00 0.00 74 1010.1
20260506081515 17 34 1.6 4.8 0.00 0.00 0.00 75 1010.1
20260506080516 16 62 1.6 4.8 0.00 0.00 0.00 74 1009.9
20260506073516 17 47 1.6 6.4 0.00 0.00 0.00 75 1009.9
20260506072517 17 45 1.6 6.4 0.00 0.00 0.00 75 1010.0
20260506071517 17 44 1.6 3.2 0.00 0.00 0.00 75 1009.9
20260506070517 17 60 1.6 4.8 0.00 0.00 0.00 75 1009.9
20260506061518 17 49 1.6 4.8 0.00 0.00 0.00 74 1009.8
20260506060535 17 38 1.6 4.8 0.00 0.00 0.00 74 1009.8
20260506050522 18 33 1.6 4.8 0.00 0.00 0.00 72 1009.8
20260506044517 19 41 1.6 4.8 0.00 0.00 0.00 71 1009.6
20260506043537 20 34 1.6 6.4 0.00 0.00 0.00 71 1009.7
20260506042518 20 353 1.6 9.7 0.00 0.00 0.00 71 1009.8
20260506041558 20 10 1.6 6.4 0.00 0.00 0.00 71 1009.6
20260506040536 21 25 1.6 8.0 0.00 0.00 0.00 70 1009.4
20260506035558 21 17 0.0 4.8 0.00 0.00 0.00 70 1009.1
20260506034515 21 348 1.6 8.0 0.00 0.00 0.00 69 1009.0
20260506033515 21 22 1.6 6.4 0.00 0.00 0.00 68 1008.9
20260506032539 21 36 1.6 8.0 0.00 0.00 0.00 67 1008.6
20260506031515 21 32 1.6 8.0 0.00 0.00 0.00 65 1008.4
20260506030516 21 48 1.6 8.0 0.00 0.00 0.00 65 1008.3
20260506025556 22 7 1.6 4.8 0.00 0.00 0.00 66 1008.3
20260506024556 22 22 1.6 6.4 0.00 0.00 0.00 66 1008.1
20260506023517 22 5 1.6 6.4 0.00 0.00 0.00 65 1007.8
20260506022517 22 356 1.6 6.4 0.00 0.00 0.00 66 1007.6
20260506021517 23 19 1.6 6.4 0.00 0.00 0.00 65 1007.4
20260506020517 23 319 1.6 6.4 0.00 0.00 0.00 64 1007.0
20260506015517 23 30 1.6 12.9 0.00 0.00 0.00 64 1006.7
20260506014517 24 28 3.2 9.7 0.00 0.00 0.00 64 1006.5
20260506013518 25 22 3.2 9.7 0.00 0.00 0.00 64 1006.4
20260506012538 25 45 3.2 9.7 0.00 0.00 0.00 62 1006.0
20260506011518 26 25 1.6 6.4 0.00 0.00 0.00 60 1005.9
20260506010518 26 17 1.6 4.8 0.00 0.00 0.00 59 1006.0
20260506005518 26 36 1.6 9.7 0.00 0.00 0.00 59 1005.6
20260506004515 27 48 3.2 9.7 0.00 0.00 0.00 58 1005.4
20260506003538 27 357 0.0 3.2 0.00 0.00 0.00 57 1005.5
20260506002515 27 19 0.0 3.2 0.00 0.00 0.00 56 1005.4
20260506001515 28 7 0.0 3.2 0.00 0.00 0.00 54 1005.4
20260506000516 28 17 1.6 4.8 0.00 0.00 0.00 55 1005.3
20260505235516 28 4 1.6 3.2 0.00 0.00 0.00 55 1005.0
20260505234516 30 317 1.6 8.0 0.00 0.00 0.00 53 1004.9
20260505233516 30 306 1.6 4.8 0.00 0.00 0.00 48 1004.7
20260505232517 31 311 0.0 4.8 0.00 0.00 0.00 47 1004.5
20260505231516 31 350 0.0 4.8 0.00 0.00 0.00 46 1004.2
20260505230537 32 264 1.6 8.0 0.00 0.00 0.00 56 1004.2
20260505225517 32 213 3.2 9.7 0.00 0.00 0.00 55 1004.0
20260505224518 32 200 3.2 8.0 0.00 0.00 0.00 54 1003.8
20260505223517 33 215 4.8 9.7 0.00 0.00 0.00 50 1003.8
20260505222517 33 243 4.8 11.3 0.00 0.00 0.00 47 1003.6
20260505221518 33 229 4.8 9.7 0.00 0.00 0.00 41 1003.4
20260505220518 33 238 3.2 8.0 0.00 0.00 0.00 40 1003.5
20260505215518 33 232 4.8 11.3 0.00 0.00 0.00 41 1003.5
20260505214515 33 221 3.2 6.4 0.00 0.00 0.00 48 1003.6
20260505213515 32 195 1.6 8.0 0.00 0.00 0.00 49 1003.7
20260505212516 32 216 4.8 9.7 0.00 0.00 0.00 47 1003.8
20260505211556 32 236 3.2 8.0 0.00 0.00 0.00 48 1003.9
20260505210516 32 235 4.8 11.3 0.00 0.00 0.00 49 1004.1
20260505205516 32 235 4.8 14.5 0.00 0.00 0.00 49 1004.4
20260505204517 32 231 6.4 12.9 0.00 0.00 0.00 50 1004.3
20260505203517 32 236 4.8 12.9 0.00 0.00 0.00 49 1004.4
20260505202517 32 223 4.8 12.9 0.00 0.00 0.00 52 1004.6
20260505201517 32 215 8.0 19.3 0.00 0.00 0.00 52 1004.7
20260505200517 32 239 4.8 12.9 0.00 0.00 0.00 52 1004.9
20260505195517 31 232 6.4 14.5 0.00 0.00 0.00 53 1004.8
20260505194518 31 240 6.4 14.5 0.00 0.00 0.00 56 1004.8
20260505193518 31 203 4.8 12.9 0.00 0.00 0.00 57 1004.9
20260505192518 31 227 4.8 11.3 0.00 0.00 0.00 57 1004.9
20260505191518 30 222 6.4 17.7 0.00 0.00 0.00 57 1004.9
20260505190518 30 231 6.4 14.5 0.00 0.00 0.00 58 1005.0
20260505185516 30 211 6.4 14.5 0.00 0.00 0.00 61 1005.1
20260505184535 30 201 6.4 20.9 0.00 0.00 0.00 61 1005.1
20260505183515 30 219 8.0 17.7 0.00 0.00 0.00 61 1005.3
20260505182516 29 208 6.4 16.1 0.00 0.00 0.00 62 1005.3
20260505181516 29 226 4.8 12.9 0.00 0.00 0.00 63 1005.3
20260505180516 28 217 4.8 12.9 0.00 0.00 0.00 65 1005.4
20260505175516 28 212 6.4 19.3 0.00 0.00 0.00 65 1005.5
20260505174536 28 222 6.4 14.5 0.00 0.00 0.00 65 1005.5
20260505173517 27 208 8.0 16.1 0.00 0.00 0.00 66 1005.4
20260505172516 27 222 8.0 17.7 0.00 0.00 0.00 67 1005.5
20260505171517 27 227 8.0 17.7 0.00 0.00 0.00 67 1005.6
20260505170517 27 212 6.4 16.1 0.00 0.00 0.00 66 1005.6
20260505165517 27 228 8.0 17.7 0.00 0.00 0.00 66 1005.6
20260505164537 27 220 6.4 14.5 0.00 0.00 0.00 67 1005.6
20260505163518 27 229 8.0 14.5 0.00 0.00 0.00 68 1005.4
20260505162518 27 223 9.7 17.7 0.00 0.00 0.00 68 1005.2
20260505161518 26 219 11.3 17.7 0.00 0.00 0.00 71 1005.2
20260505160518 26 218 11.3 19.3 0.00 0.00 0.00 72 1005.2